Time,TemperatureF,DewpointF,PressureIn,WindDirection,WindDirectionDegrees,WindSpeedMPH,WindSpeedGustMPH,Humidity,HourlyPrecipIn,Conditions,Clouds,dailyrainin,SolarRadiationWatts/m^2,SoftwareType,DateUTC
2013-05-03 00:00:00,33.0,31.0,30.21,North,359,0.0,0.0,94,0.00,,,0.38,0,Custom,2013-05-03 05:00:00,
2013-05-03 00:05:00,33.1,31.0,30.21,North,359,0.0,0.0,94,0.00,,,0.00,0,Custom,2013-05-03 05:05:00,
2013-05-03 00:10:00,33.2,32.0,30.21,North,3,0.0,0.0,94,0.00,,,0.00,0,Custom,2013-05-03 05:10:00,
2013-05-03 00:15:00,33.2,32.0,30.22,North,358,0.0,0.0,94,0.00,,,0.00,0,Custom,2013-05-03 05:15:00,
2013-05-03 00:20:00,33.3,32.0,30.22,North,356,0.0,0.0,94,0.00,,,0.00,0,Custom,2013-05-03 05:20:00,
2013-05-03 00:25:00,33.4,32.0,30.21,North,356,0.0,0.0,94,0.00,,,0.00,0,Custom,2013-05-03 05:25:00,
2013-05-03 00:30:00,33.4,32.0,30.21,North,359,0.0,0.0,94,0.00,,,0.00,0,Custom,2013-05-03 05:30:00,
2013-05-03 00:35:00,33.5,32.0,30.20,North,359,0.0,0.0,94,0.00,,,0.00,0,Custom,2013-05-03 05:35:00,
2013-05-03 00:40:00,33.6,32.0,30.20,North,8,0.0,1.0,94,0.00,,,0.00,0,Custom,2013-05-03 05:40:00,
2013-05-03 00:45:00,33.8,32.0,30.21,North,9,0.0,2.0,94,0.00,,,0.00,0,Custom,2013-05-03 05:45:00,
2013-05-03 00:50:00,33.9,32.0,30.19,NW,310,0.0,5.0,93,0.00,,,0.00,0,Custom,2013-05-03 05:50:00,
2013-05-03 00:55:00,33.8,32.0,30.19,North,0,2.0,5.0,94,0.00,,,0.00,0,Custom,2013-05-03 05:55:00,
2013-05-03 01:00:00,33.8,32.0,30.20,NNW,336,1.0,3.0,93,0.00,,,0.00,0,Custom,2013-05-03 06:00:00,
2013-05-03 01:05:00,33.8,32.0,30.20,North,359,0.0,2.0,93,0.00,,,0.00,0,Custom,2013-05-03 06:05:00,
2013-05-03 01:10:00,33.8,32.0,30.21,North,0,0.0,1.0,93,0.00,,,0.00,0,Custom,2013-05-03 06:10:00,
2013-05-03 01:15:00,33.8,32.0,30.21,North,0,0.0,1.0,93,0.01,,,0.01,0,Custom,2013-05-03 06:15:00,
2013-05-03 01:20:00,33.7,32.0,30.19,North,0,0.0,1.0,93,0.03,,,0.03,0,Custom,2013-05-03 06:20:00,
2013-05-03 01:25:00,33.8,32.0,30.19,North,5,0.0,3.0,93,0.03,,,0.03,0,Custom,2013-05-03 06:25:00,
2013-05-03 01:30:00,33.8,32.0,30.19,NW,325,0.0,2.0,93,0.04,,,0.04,0,Custom,2013-05-03 06:30:00,
2013-05-03 01:35:00,33.8,32.0,30.19,North,355,0.0,1.0,93,0.04,,,0.04,0,Custom,2013-05-03 06:35:00,
2013-05-03 01:40:00,33.8,32.0,30.18,North,360,0.0,5.0,94,0.05,,,0.05,0,Custom,2013-05-03 06:40:00,
2013-05-03 01:45:00,33.8,32.0,30.18,North,358,0.0,5.0,93,0.05,,,0.05,0,Custom,2013-05-03 06:45:00,
2013-05-03 01:50:00,33.9,32.0,30.17,North,360,0.0,6.0,94,0.06,,,0.06,0,Custom,2013-05-03 06:50:00,
2013-05-03 01:55:00,33.9,32.0,30.16,North,360,2.0,4.0,94,0.06,,,0.06,0,Custom,2013-05-03 06:55:00,
2013-05-03 02:00:00,33.9,32.0,30.15,North,0,1.0,6.0,93,0.07,,,0.07,0,Custom,2013-05-03 07:00:00,
2013-05-03 02:05:00,34.1,33.0,30.15,North,357,0.0,3.0,94,0.07,,,0.07,0,Custom,2013-05-03 07:05:00,
2013-05-03 02:10:00,34.2,32.0,30.16,NW,306,0.0,4.0,93,0.07,,,0.07,0,Custom,2013-05-03 07:10:00,
2013-05-03 02:15:00,34.3,33.0,30.15,NNW,343,5.0,5.0,93,0.07,,,0.08,0,Custom,2013-05-03 07:15:00,
2013-05-03 02:20:00,34.4,33.0,30.15,North,6,2.0,5.0,93,0.05,,,0.08,0,Custom,2013-05-03 07:20:00,
2013-05-03 02:25:00,34.4,32.0,30.15,SE,143,0.0,5.0,92,0.05,,,0.08,0,Custom,2013-05-03 07:25:00,
2013-05-03 02:30:00,34.5,33.0,30.14,North,7,3.0,6.0,92,0.05,,,0.09,0,Custom,2013-05-03 07:30:00,
2013-05-03 02:35:00,34.6,33.0,30.14,North,360,0.0,9.0,92,0.05,,,0.09,0,Custom,2013-05-03 07:35:00,
2013-05-03 02:40:00,34.6,33.0,30.15,North,357,0.0,7.0,92,0.04,,,0.09,0,Custom,2013-05-03 07:40:00,
2013-05-03 02:45:00,34.6,33.0,30.14,North,11,0.0,5.0,92,0.05,,,0.11,0,Custom,2013-05-03 07:45:00,
2013-05-03 02:50:00,34.5,33.0,30.14,North,356,0.0,5.0,92,0.04,,,0.11,0,Custom,2013-05-03 07:50:00,
2013-05-03 02:55:00,34.5,32.0,30.14,North,360,0.0,2.0,92,0.04,,,0.11,0,Custom,2013-05-03 07:55:00,
2013-05-03 03:00:00,34.4,32.0,30.14,North,11,0.0,2.0,92,0.03,,,0.11,0,Custom,2013-05-03 08:00:00,
2013-05-03 03:05:00,34.5,32.0,30.14,North,11,0.0,2.0,92,0.03,,,0.11,0,Custom,2013-05-03 08:05:00,
2013-05-03 03:10:00,34.5,32.0,30.14,NNE,29,0.0,4.0,92,0.04,,,0.12,0,Custom,2013-05-03 08:10:00,
2013-05-03 03:15:00,34.5,32.0,30.14,North,0,0.0,4.0,92,0.03,,,0.12,0,Custom,2013-05-03 08:15:00,
2013-05-03 03:20:00,34.5,32.0,30.13,NNE,23,1.0,2.0,92,0.03,,,0.12,0,Custom,2013-05-03 08:20:00,
2013-05-03 03:25:00,34.5,32.0,30.13,North,359,0.0,5.0,92,0.03,,,0.12,0,Custom,2013-05-03 08:25:00,
2013-05-03 03:30:00,34.5,32.0,30.12,ENE,78,0.0,4.0,91,0.02,,,0.12,0,Custom,2013-05-03 08:30:00,
2013-05-03 03:35:00,34.6,33.0,30.11,North,360,2.0,3.0,92,0.03,,,0.13,0,Custom,2013-05-03 08:35:00,
2013-05-03 03:40:00,34.7,32.0,30.12,North,360,0.0,2.0,91,0.03,,,0.13,0,Custom,2013-05-03 08:40:00,
2013-05-03 03:45:00,34.7,33.0,30.12,North,360,3.0,3.0,91,0.02,,,0.13,0,Custom,2013-05-03 08:45:00,
2013-05-03 03:50:00,34.9,32.0,30.12,NNW,337,0.0,3.0,91,0.02,,,0.13,0,Custom,2013-05-03 08:50:00,
2013-05-03 03:55:00,35.0,33.0,30.12,North,360,2.0,3.0,90,0.02,,,0.13,0,Custom,2013-05-03 08:55:00,
2013-05-03 04:00:00,35.0,32.0,30.11,North,4,0.0,3.0,90,0.02,,,0.13,0,Custom,2013-05-03 09:00:00,
2013-05-03 04:05:00,35.0,32.0,30.11,North,0,0.0,1.0,90,0.03,,,0.14,0,Custom,2013-05-03 09:05:00,
2013-05-03 04:10:00,35.0,32.0,30.10,NW,313,2.0,2.0,90,0.02,,,0.14,0,Custom,2013-05-03 09:10:00,
2013-05-03 04:15:00,35.1,32.0,30.10,NW,321,0.0,3.0,89,0.02,,,0.14,0,Custom,2013-05-03 09:15:00,
2013-05-03 04:20:00,35.2,32.0,30.10,North,0,0.0,3.0,89,0.02,,,0.14,0,Custom,2013-05-03 09:20:00,
2013-05-03 04:25:00,35.2,32.0,30.11,NE,35,0.0,4.0,89,0.02,,,0.14,0,Custom,2013-05-03 09:25:00,
2013-05-03 04:30:00,35.3,32.0,30.13,NNW,339,0.0,5.0,89,0.02,,,0.14,0,Custom,2013-05-03 09:30:00,
2013-05-03 04:35:00,35.3,32.0,30.12,North,0,0.0,3.0,89,0.02,,,0.15,0,Custom,2013-05-03 09:35:00,
2013-05-03 04:40:00,35.3,32.0,30.11,NNE,16,0.0,2.0,88,0.02,,,0.15,0,Custom,2013-05-03 09:40:00,
2013-05-03 04:45:00,35.3,32.0,30.09,NW,312,0.0,8.0,88,0.02,,,0.15,0,Custom,2013-05-03 09:45:00,
2013-05-03 04:50:00,35.6,33.0,30.09,North,359,0.0,7.0,88,0.02,,,0.15,0,Custom,2013-05-03 09:50:00,
2013-05-03 04:55:00,35.7,32.0,30.09,NNW,340,0.0,4.0,87,0.02,,,0.15,0,Custom,2013-05-03 09:55:00,
2013-05-03 05:00:00,36.0,33.0,30.10,North,0,0.0,7.0,87,0.02,,,0.15,0,Custom,2013-05-03 10:00:00,
2013-05-03 05:05:00,35.7,32.0,30.11,North,360,0.0,3.0,87,0.02,,,0.16,0,Custom,2013-05-03 10:05:00,
2013-05-03 05:10:00,35.9,32.0,30.09,North,1,0.0,5.0,86,0.02,,,0.16,0,Custom,2013-05-03 10:10:00,
2013-05-03 05:15:00,35.7,32.0,30.09,WNW,287,0.0,3.0,87,0.02,,,0.16,0,Custom,2013-05-03 10:15:00,
2013-05-03 05:20:00,35.6,32.0,30.09,North,0,3.0,3.0,86,0.02,,,0.16,0,Custom,2013-05-03 10:20:00,
2013-05-03 05:25:00,35.7,32.0,30.09,North,0,0.0,3.0,86,0.02,,,0.16,0,Custom,2013-05-03 10:25:00,
2013-05-03 05:30:00,35.9,32.0,30.09,NNE,13,2.0,6.0,86,0.03,,,0.17,0,Custom,2013-05-03 10:30:00,
2013-05-03 05:35:00,35.9,32.0,30.08,North,359,2.0,5.0,87,0.02,,,0.17,0,Custom,2013-05-03 10:35:00,
2013-05-03 05:40:00,35.9,32.0,30.09,NNW,340,0.0,3.0,86,0.02,,,0.17,0,Custom,2013-05-03 10:40:00,
2013-05-03 05:45:00,35.8,32.0,30.09,North,360,0.0,6.0,86,0.02,,,0.17,0,Custom,2013-05-03 10:45:00,
2013-05-03 05:50:00,35.7,32.0,30.09,NNE,28,3.0,3.0,86,0.02,,,0.17,0,Custom,2013-05-03 10:50:00,
2013-05-03 05:55:00,35.8,32.0,30.09,North,360,3.0,3.0,86,0.02,,,0.17,0,Custom,2013-05-03 10:55:00,
2013-05-03 06:00:00,35.7,32.0,30.09,North,8,0.0,2.0,86,0.02,,,0.17,0,Custom,2013-05-03 11:00:00,
2013-05-03 06:05:00,36.0,32.0,30.09,North,1,2.0,3.0,86,0.02,,,0.18,0,Custom,2013-05-03 11:05:00,
2013-05-03 06:10:00,35.7,32.0,30.09,North,6,0.0,2.0,86,0.02,,,0.18,0,Custom,2013-05-03 11:10:00,
2013-05-03 06:15:00,35.8,32.0,30.09,WNW,293,0.0,1.0,86,0.02,,,0.18,0,Custom,2013-05-03 11:15:00,
2013-05-03 06:20:00,35.8,32.0,30.09,North,0,0.0,2.0,86,0.02,,,0.18,0,Custom,2013-05-03 11:20:00,
2013-05-03 06:25:00,35.9,32.0,30.09,North,7,3.0,3.0,86,0.02,,,0.18,0,Custom,2013-05-03 11:25:00,
2013-05-03 06:30:00,36.0,32.0,30.09,North,357,2.0,5.0,86,0.01,,,0.18,0,Custom,2013-05-03 11:30:00,
2013-05-03 06:35:00,36.0,32.0,30.09,North,360,1.0,2.0,86,0.02,,,0.19,0,Custom,2013-05-03 11:35:00,
2013-05-03 06:40:00,36.1,32.0,30.09,North,5,2.0,2.0,85,0.02,,,0.19,0,Custom,2013-05-03 11:40:00,
2013-05-03 06:45:00,36.0,32.0,30.09,NNW,344,0.0,2.0,85,0.02,,,0.19,12.48,Custom,2013-05-03 11:45:00,
2013-05-03 06:50:00,36.1,32.0,30.08,WNW,302,4.0,4.0,85,0.02,,,0.19,20.28,Custom,2013-05-03 11:50:00,
2013-05-03 06:55:00,36.2,32.0,30.08,North,359,2.0,4.0,85,0.02,,,0.19,25.35,Custom,2013-05-03 11:55:00,
2013-05-03 07:00:00,36.3,32.0,30.08,North,359,0.0,2.0,85,0.02,,,0.19,32.76,Custom,2013-05-03 12:00:00,
2013-05-03 07:05:00,36.5,32.0,30.07,North,3,0.0,2.0,85,0.02,,,0.20,37.44,Custom,2013-05-03 12:05:00,
2013-05-03 07:10:00,36.8,33.0,30.07,North,0,0.0,2.0,84,0.02,,,0.20,56.94,Custom,2013-05-03 12:10:00,
2013-05-03 07:15:00,36.9,32.0,30.06,NW,320,0.0,5.0,83,0.02,,,0.20,53.82,Custom,2013-05-03 12:15:00,
2013-05-03 07:20:00,37.1,32.0,30.07,North,11,0.0,1.0,83,0.02,,,0.20,35.88,Custom,2013-05-03 12:20:00,
2013-05-03 07:25:00,37.2,33.0,30.09,NNW,333,0.0,2.0,83,0.03,,,0.21,30.81,Custom,2013-05-03 12:25:00,
2013-05-03 07:30:00,37.0,32.0,30.09,North,0,0.0,2.0,83,0.03,,,0.21,31.59,Custom,2013-05-03 12:30:00,
2013-05-03 07:35:00,37.0,32.0,30.07,NNW,330,0.0,9.0,82,0.02,,,0.21,37.44,Custom,2013-05-03 12:35:00,
2013-05-03 07:40:00,37.2,32.0,30.06,NNW,342,0.0,6.0,82,0.02,,,0.21,34.71,Custom,2013-05-03 12:40:00,
2013-05-03 07:45:00,37.2,32.0,30.06,ENE,60,0.0,3.0,82,0.03,,,0.22,41.73,Custom,2013-05-03 12:45:00,
2013-05-03 07:50:00,37.5,32.0,30.05,North,6,0.0,3.0,82,0.03,,,0.22,81.9,Custom,2013-05-03 12:50:00,
2013-05-03 07:55:00,37.6,32.0,30.05,North,9,2.0,2.0,81,0.03,,,0.23,69.03,Custom,2013-05-03 12:55:00,
2013-05-03 08:00:00,37.7,32.0,30.05,North,360,0.0,6.0,80,0.04,,,0.23,75.66,Custom,2013-05-03 13:00:00,
2013-05-03 08:05:00,37.8,32.0,30.05,West,281,5.0,8.0,81,0.03,,,0.23,90.09,Custom,2013-05-03 13:05:00,
2013-05-03 08:10:00,37.8,33.0,30.04,North,360,0.0,10.0,81,0.04,,,0.24,83.46,Custom,2013-05-03 13:10:00,
2013-05-03 08:15:00,37.9,32.0,30.04,West,279,0.0,3.0,80,0.04,,,0.24,81.51,Custom,2013-05-03 13:15:00,
2013-05-03 08:20:00,38.0,33.0,30.04,North,0,0.0,5.0,81,0.05,,,0.25,97.5,Custom,2013-05-03 13:20:00,
2013-05-03 08:25:00,38.1,32.0,30.04,North,351,0.0,4.0,79,0.04,,,0.25,102.18,Custom,2013-05-03 13:25:00,
2013-05-03 08:30:00,38.3,33.0,30.03,WNW,295,0.0,2.0,79,0.05,,,0.26,120.12,Custom,2013-05-03 13:30:00,
2013-05-03 08:35:00,38.5,32.0,30.03,North,359,0.0,4.0,78,0.05,,,0.26,104.91,Custom,2013-05-03 13:35:00,
2013-05-03 08:40:00,38.3,32.0,30.04,NNW,331,0.0,7.0,78,0.06,,,0.27,84.63,Custom,2013-05-03 13:40:00,
2013-05-03 08:45:00,38.2,32.0,30.04,North,354,2.0,6.0,79,0.05,,,0.27,88.92,Custom,2013-05-03 13:45:00,
2013-05-03 08:50:00,38.2,32.0,30.04,North,357,4.0,7.0,78,0.06,,,0.28,73.71,Custom,2013-05-03 13:50:00,
2013-05-03 08:55:00,38.2,32.0,30.04,WNW,298,2.0,7.0,79,0.06,,,0.28,83.85,Custom,2013-05-03 13:55:00,
2013-05-03 09:00:00,38.2,32.0,30.03,North,9,0.0,5.0,79,0.06,,,0.29,77.22,Custom,2013-05-03 14:00:00,
2013-05-03 09:05:00,38.4,32.0,30.03,NE,44,5.0,5.0,78,0.06,,,0.29,112.71,Custom,2013-05-03 14:05:00,
2013-05-03 09:10:00,38.5,33.0,30.04,WSW,247,3.0,6.0,79,0.06,,,0.31,88.92,Custom,2013-05-03 14:10:00,
2013-05-03 09:15:00,38.5,32.0,30.03,NW,320,0.0,3.0,78,0.06,,,0.31,104.13,Custom,2013-05-03 14:15:00,
2013-05-03 09:20:00,38.7,32.0,30.03,NW,310,7.0,7.0,78,0.06,,,0.32,91.26,Custom,2013-05-03 14:20:00,
2013-05-03 09:25:00,38.6,32.0,30.02,NW,305,2.0,7.0,78,0.06,,,0.32,86.58,Custom,2013-05-03 14:25:00,
2013-05-03 09:30:00,38.7,32.0,30.02,NW,313,0.0,2.0,77,0.06,,,0.33,59.67,Custom,2013-05-03 14:30:00,
2013-05-03 09:35:00,38.4,32.0,30.02,NNW,345,0.0,8.0,78,0.06,,,0.33,61.23,Custom,2013-05-03 14:35:00,
2013-05-03 09:40:00,38.4,33.0,30.01,NNW,337,0.0,6.0,79,0.05,,,0.33,73.71,Custom,2013-05-03 14:40:00,
2013-05-03 09:45:00,38.5,32.0,30.01,North,0,0.0,4.0,78,0.06,,,0.34,69.81,Custom,2013-05-03 14:45:00,
2013-05-03 09:50:00,38.7,33.0,30.01,NNE,25,0.0,2.0,78,0.05,,,0.34,87.75,Custom,2013-05-03 14:50:00,
2013-05-03 09:55:00,38.8,33.0,30.01,North,349,1.0,4.0,78,0.06,,,0.35,101.4,Custom,2013-05-03 14:55:00,
2013-05-03 10:00:00,38.8,33.0,30.01,North,353,0.0,8.0,78,0.05,,,0.35,78,Custom,2013-05-03 15:00:00,
2013-05-03 10:05:00,38.8,33.0,30.02,NW,321,3.0,3.0,78,0.06,,,0.36,98.67,Custom,2013-05-03 15:05:00,
2013-05-03 10:10:00,38.9,32.0,30.02,NW,322,1.0,2.0,77,0.05,,,0.36,67.08,Custom,2013-05-03 15:10:00,
2013-05-03 10:15:00,38.9,33.0,30.01,North,0,0.0,3.0,78,0.06,,,0.37,86.19,Custom,2013-05-03 15:15:00,
2013-05-03 10:20:00,39.0,33.0,30.01,West,276,0.0,4.0,78,0.05,,,0.37,96.72,Custom,2013-05-03 15:20:00,
2013-05-03 10:25:00,39.2,33.0,30.01,North,359,5.0,5.0,78,0.06,,,0.38,97.11,Custom,2013-05-03 15:25:00,
2013-05-03 10:30:00,39.2,33.0,30.01,NNW,348,0.0,5.0,77,0.05,,,0.38,90.09,Custom,2013-05-03 15:30:00,
2013-05-03 10:35:00,39.1,33.0,30.01,North,359,3.0,7.0,77,0.05,,,0.38,107.25,Custom,2013-05-03 15:35:00,
2013-05-03 10:40:00,39.1,33.0,30.01,North,4,3.0,6.0,79,0.06,,,0.39,85.8,Custom,2013-05-03 15:40:00,
2013-05-03 10:45:00,39.2,33.0,30.01,West,278,5.0,9.0,78,0.05,,,0.39,92.82,Custom,2013-05-03 15:45:00,
2013-05-03 10:50:00,39.0,33.0,30.01,North,0,0.0,4.0,78,0.06,,,0.40,96.33,Custom,2013-05-03 15:50:00,
2013-05-03 10:55:00,39.2,33.0,30.01,NE,37,2.0,6.0,78,0.05,,,0.40,105.69,Custom,2013-05-03 15:55:00,
2013-05-03 11:00:00,39.2,33.0,30.00,West,273,0.0,7.0,77,0.06,,,0.41,101.4,Custom,2013-05-03 16:00:00,
2013-05-03 11:05:00,39.3,32.0,30.00,North,0,5.0,5.0,76,0.05,,,0.41,128.7,Custom,2013-05-03 16:05:00,
2013-05-03 11:10:00,39.7,33.0,30.00,North,352,0.0,7.0,77,0.06,,,0.42,124.41,Custom,2013-05-03 16:10:00,
2013-05-03 11:15:00,39.6,32.0,30.00,North,351,2.0,9.0,75,0.05,,,0.42,135.33,Custom,2013-05-03 16:15:00,
2013-05-03 11:20:00,39.8,33.0,30.00,NNW,343,0.0,10.0,76,0.06,,,0.43,124.8,Custom,2013-05-03 16:20:00,
2013-05-03 11:25:00,39.9,33.0,30.00,South,175,0.0,8.0,75,0.05,,,0.43,143.13,Custom,2013-05-03 16:25:00,
2013-05-03 11:30:00,39.9,33.0,30.00,WSW,257,2.0,8.0,76,0.06,,,0.44,136.5,Custom,2013-05-03 16:30:00,
2013-05-03 11:35:00,40.0,33.0,30.00,WNW,303,3.0,7.0,76,0.06,,,0.44,144.69,Custom,2013-05-03 16:35:00,
2013-05-03 11:40:00,40.3,33.0,30.00,NNW,336,0.0,5.0,74,0.06,,,0.45,137.28,Custom,2013-05-03 16:40:00,
2013-05-03 11:45:00,40.0,33.0,30.00,North,351,0.0,7.0,75,0.06,,,0.45,127.92,Custom,2013-05-03 16:45:00,
2013-05-03 11:50:00,40.0,33.0,30.00,West,275,3.0,5.0,76,0.06,,,0.46,107.25,Custom,2013-05-03 16:50:00,
2013-05-03 11:55:00,39.9,33.0,29.99,North,5,3.0,5.0,76,0.06,,,0.46,129.09,Custom,2013-05-03 16:55:00,
2013-05-03 12:00:00,40.0,33.0,29.99,North,360,0.0,8.0,77,0.06,,,0.47,151.32,Custom,2013-05-03 17:00:00,
2013-05-03 12:05:00,40.3,34.0,29.99,WNW,288,6.0,6.0,77,0.06,,,0.47,131.43,Custom,2013-05-03 17:05:00,
2013-05-03 12:10:00,39.8,33.0,29.99,North,360,4.0,7.0,76,0.06,,,0.48,141.96,Custom,2013-05-03 17:10:00,
2013-05-03 12:15:00,39.8,33.0,29.99,North,6,3.0,12.0,77,0.06,,,0.48,138.45,Custom,2013-05-03 17:15:00,
2013-05-03 12:20:00,39.8,33.0,29.99,NNW,340,6.0,8.0,78,0.06,,,0.49,143.91,Custom,2013-05-03 17:20:00,
2013-05-03 12:25:00,39.8,34.0,29.98,NNE,12,2.0,6.0,79,0.06,,,0.49,151.71,Custom,2013-05-03 17:25:00,
2013-05-03 12:30:00,40.3,34.0,29.98,North,4,4.0,11.0,79,0.06,,,0.51,169.65,Custom,2013-05-03 17:30:00,
2013-05-03 12:35:00,39.8,34.0,29.98,West,272,0.0,8.0,79,0.06,,,0.51,183.69,Custom,2013-05-03 17:35:00,
2013-05-03 12:40:00,39.7,34.0,29.98,North,3,0.0,8.0,81,0.06,,,0.52,163.41,Custom,2013-05-03 17:40:00,
2013-05-03 12:45:00,40.0,35.0,29.97,NW,322,0.0,4.0,81,0.06,,,0.52,164.58,Custom,2013-05-03 17:45:00,
2013-05-03 12:50:00,39.8,34.0,29.97,NW,318,2.0,5.0,80,0.06,,,0.53,157.17,Custom,2013-05-03 17:50:00,
2013-05-03 12:55:00,39.6,34.0,29.96,West,262,0.0,6.0,80,0.07,,,0.54,144.69,Custom,2013-05-03 17:55:00,
2013-05-03 13:00:00,39.6,34.0,29.96,NNE,22,0.0,9.0,81,0.06,,,0.54,171.21,Custom,2013-05-03 18:00:00,
2013-05-03 13:05:00,39.7,35.0,29.96,NNE,32,2.0,3.0,82,0.07,,,0.55,138.84,Custom,2013-05-03 18:05:00,
2013-05-03 13:10:00,39.5,34.0,29.96,North,359,0.0,7.0,82,0.06,,,0.55,129.48,Custom,2013-05-03 18:10:00,
2013-05-03 13:15:00,39.8,35.0,29.96,NW,320,1.0,3.0,82,0.07,,,0.56,115.05,Custom,2013-05-03 18:15:00,
2013-05-03 13:20:00,39.2,35.0,29.96,West,265,0.0,5.0,83,0.06,,,0.56,146.25,Custom,2013-05-03 18:20:00,
2013-05-03 13:25:00,39.2,35.0,29.96,NNW,336,0.0,7.0,83,0.07,,,0.57,131.04,Custom,2013-05-03 18:25:00,
2013-05-03 13:30:00,39.2,35.0,29.95,West,269,3.0,5.0,84,0.06,,,0.57,119.34,Custom,2013-05-03 18:30:00,
2013-05-03 13:35:00,39.4,35.0,29.95,NW,322,2.0,10.0,84,0.07,,,0.58,156.78,Custom,2013-05-03 18:35:00,
2013-05-03 13:40:00,38.9,34.0,29.95,NNW,336,3.0,11.0,84,0.06,,,0.58,140.79,Custom,2013-05-03 18:40:00,
2013-05-03 13:45:00,39.1,35.0,29.95,North,360,4.0,6.0,84,0.07,,,0.59,189.93,Custom,2013-05-03 18:45:00,
2013-05-03 13:50:00,39.8,36.0,29.95,WNW,301,0.0,4.0,85,0.06,,,0.60,230.1,Custom,2013-05-03 18:50:00,
2013-05-03 13:55:00,39.7,35.0,29.95,North,7,3.0,7.0,83,0.06,,,0.60,195,Custom,2013-05-03 18:55:00,
2013-05-03 14:00:00,40.3,35.0,29.95,West,273,1.0,7.0,82,0.06,,,0.60,225.81,Custom,2013-05-03 19:00:00,
2013-05-03 14:05:00,40.0,35.0,29.95,North,5,1.0,6.0,82,0.05,,,0.60,206.7,Custom,2013-05-03 19:05:00,
2013-05-03 14:10:00,40.1,35.0,29.94,NW,317,0.0,5.0,83,0.05,,,0.61,227.37,Custom,2013-05-03 19:10:00,
2013-05-03 14:15:00,40.3,35.0,29.95,NW,304,0.0,8.0,82,0.05,,,0.61,261.69,Custom,2013-05-03 19:15:00,
2013-05-03 14:20:00,40.5,35.0,29.95,NW,319,0.0,6.0,82,0.05,,,0.61,143.91,Custom,2013-05-03 19:20:00,
2013-05-03 14:25:00,40.2,35.0,29.95,North,358,0.0,9.0,81,0.04,,,0.61,162.63,Custom,2013-05-03 19:25:00,
2013-05-03 14:30:00,40.1,35.0,29.95,NW,304,2.0,6.0,82,0.05,,,0.62,146.25,Custom,2013-05-03 19:30:00,
2013-05-03 14:35:00,40.0,34.0,29.95,NNW,345,0.0,8.0,80,0.04,,,0.62,184.86,Custom,2013-05-03 19:35:00,
2013-05-03 14:40:00,39.8,34.0,29.95,NW,310,2.0,8.0,80,0.05,,,0.63,190.32,Custom,2013-05-03 19:40:00,
2013-05-03 14:45:00,40.3,35.0,29.95,WNW,294,4.0,6.0,82,0.04,,,0.63,151.32,Custom,2013-05-03 19:45:00,
2013-05-03 14:50:00,40.0,35.0,29.95,North,360,0.0,4.0,83,0.04,,,0.63,92.04,Custom,2013-05-03 19:50:00,
2013-05-03 14:55:00,39.7,35.0,29.95,North,0,0.0,5.0,82,0.04,,,0.64,75.27,Custom,2013-05-03 19:55:00,
2013-05-03 15:00:00,39.2,34.0,29.95,WNW,288,0.0,7.0,82,0.04,,,0.64,79.17,Custom,2013-05-03 20:00:00,
2013-05-03 15:05:00,38.9,34.0,29.95,NNE,17,0.0,7.0,83,0.04,,,0.64,85.41,Custom,2013-05-03 20:05:00,
2013-05-03 15:10:00,38.9,34.0,29.95,North,360,0.0,9.0,84,0.05,,,0.65,115.05,Custom,2013-05-03 20:10:00,
2013-05-03 15:15:00,39.5,35.0,29.95,North,360,4.0,4.0,83,0.04,,,0.65,153.66,Custom,2013-05-03 20:15:00,
2013-05-03 15:20:00,39.4,35.0,29.94,NNW,346,0.0,6.0,85,0.05,,,0.66,113.88,Custom,2013-05-03 20:20:00,
2013-05-03 15:25:00,39.2,35.0,29.93,NNW,344,4.0,6.0,84,0.05,,,0.66,113.49,Custom,2013-05-03 20:25:00,
2013-05-03 15:30:00,39.2,35.0,29.93,NNW,333,4.0,7.0,85,0.05,,,0.67,117.78,Custom,2013-05-03 20:30:00,
2013-05-03 15:35:00,39.1,35.0,29.93,North,11,0.0,8.0,86,0.05,,,0.67,78,Custom,2013-05-03 20:35:00,
2013-05-03 15:40:00,38.5,35.0,29.94,NW,319,0.0,7.0,85,0.05,,,0.68,75.66,Custom,2013-05-03 20:40:00,
2013-05-03 15:45:00,38.3,35.0,29.94,WNW,284,0.0,6.0,86,0.05,,,0.68,61.23,Custom,2013-05-03 20:45:00,
2013-05-03 15:50:00,38.2,35.0,29.94,NW,316,0.0,2.0,87,0.06,,,0.69,49.14,Custom,2013-05-03 20:50:00,
2013-05-03 15:55:00,38.2,35.0,29.94,West,272,0.0,4.0,87,0.05,,,0.69,63.96,Custom,2013-05-03 20:55:00,
2013-05-03 16:00:00,38.2,35.0,29.93,NW,308,0.0,2.0,87,0.05,,,0.69,67.08,Custom,2013-05-03 21:00:00,
2013-05-03 16:05:00,38.1,35.0,29.93,NNE,17,0.0,4.0,87,0.06,,,0.71,71.76,Custom,2013-05-03 21:05:00,
2013-05-03 16:10:00,38.3,35.0,29.92,NNW,341,6.0,6.0,88,0.05,,,0.71,67.47,Custom,2013-05-03 21:10:00,
2013-05-03 16:15:00,38.2,35.0,29.93,WNW,296,0.0,6.0,86,0.05,,,0.71,78.39,Custom,2013-05-03 21:15:00,
2013-05-03 16:20:00,38.6,35.0,29.93,North,359,0.0,3.0,88,0.05,,,0.72,74.88,Custom,2013-05-03 21:20:00,
2013-05-03 16:25:00,38.7,35.0,29.92,North,360,0.0,2.0,87,0.05,,,0.72,71.37,Custom,2013-05-03 21:25:00,
2013-05-03 16:30:00,38.9,35.0,29.93,WNW,302,0.0,1.0,87,0.04,,,0.72,60.06,Custom,2013-05-03 21:30:00,
2013-05-03 16:35:00,38.7,35.0,29.92,North,359,0.0,5.0,87,0.04,,,0.72,63.96,Custom,2013-05-03 21:35:00,
2013-05-03 16:40:00,38.6,35.0,29.92,North,0,0.0,4.0,87,0.03,,,0.72,68.25,Custom,2013-05-03 21:40:00,
2013-05-03 16:45:00,38.8,35.0,29.91,WNW,297,0.0,3.0,87,0.04,,,0.73,87.75,Custom,2013-05-03 21:45:00,
2013-05-03 16:50:00,38.9,35.0,29.91,West,259,2.0,5.0,86,0.03,,,0.73,77.61,Custom,2013-05-03 21:50:00,
2013-05-03 16:55:00,38.9,35.0,29.91,WNW,291,1.0,2.0,87,0.03,,,0.73,95.16,Custom,2013-05-03 21:55:00,
2013-05-03 17:00:00,39.0,35.0,29.91,NW,307,0.0,2.0,86,0.03,,,0.74,90.09,Custom,2013-05-03 22:00:00,
2013-05-03 17:05:00,39.4,36.0,29.91,North,360,4.0,4.0,88,0.03,,,0.74,111.54,Custom,2013-05-03 22:05:00,
2013-05-03 17:10:00,39.4,36.0,29.91,North,360,0.0,3.0,87,0.03,,,0.74,90.09,Custom,2013-05-03 22:10:00,
2013-05-03 17:15:00,39.4,36.0,29.91,NNW,344,0.0,2.0,86,0.03,,,0.74,72.93,Custom,2013-05-03 22:15:00,
2013-05-03 17:20:00,39.3,36.0,29.91,North,4,0.0,3.0,87,0.02,,,0.74,52.26,Custom,2013-05-03 22:20:00,
2013-05-03 17:25:00,39.1,35.0,29.91,WNW,295,0.0,3.0,86,0.02,,,0.74,46.02,Custom,2013-05-03 22:25:00,
2013-05-03 17:30:00,39.0,35.0,29.91,WNW,288,0.0,5.0,86,0.03,,,0.75,69.81,Custom,2013-05-03 22:30:00,
2013-05-03 17:35:00,39.1,35.0,29.91,NNE,21,0.0,7.0,85,0.03,,,0.75,79.95,Custom,2013-05-03 22:35:00,
2013-05-03 17:40:00,39.3,35.0,29.91,WNW,292,0.0,2.0,85,0.03,,,0.75,65.52,Custom,2013-05-03 22:40:00,
2013-05-03 17:45:00,39.1,35.0,29.91,West,262,2.0,3.0,85,0.02,,,0.75,47.19,Custom,2013-05-03 22:45:00,
2013-05-03 17:50:00,38.9,35.0,29.90,WNW,287,3.0,9.0,86,0.02,,,0.75,66.69,Custom,2013-05-03 22:50:00,
2013-05-03 17:55:00,39.0,35.0,29.91,North,5,2.0,3.0,86,0.02,,,0.75,60.45,Custom,2013-05-03 22:55:00,
2013-05-03 18:00:00,38.8,35.0,29.91,NNW,345,0.0,3.0,86,0.03,,,0.76,46.02,Custom,2013-05-03 23:00:00,
2013-05-03 18:05:00,38.5,35.0,29.91,NW,306,0.0,3.0,86,0.02,,,0.76,30.03,Custom,2013-05-03 23:05:00,
2013-05-03 18:10:00,38.3,35.0,29.91,North,8,3.0,3.0,87,0.02,,,0.76,49.92,Custom,2013-05-03 23:10:00,
2013-05-03 18:15:00,38.2,35.0,29.91,WNW,299,0.0,4.0,88,0.03,,,0.77,37.05,Custom,2013-05-03 23:15:00,
2013-05-03 18:20:00,38.1,35.0,29.91,SE,146,0.0,4.0,88,0.03,,,0.77,17.94,Custom,2013-05-03 23:20:00,
2013-05-03 18:25:00,38.0,35.0,29.91,NNW,341,0.0,7.0,88,0.03,,,0.77,25.74,Custom,2013-05-03 23:25:00,
2013-05-03 18:30:00,38.0,35.0,29.91,NNW,348,0.0,5.0,89,0.02,,,0.77,26.13,Custom,2013-05-03 23:30:00,
2013-05-03 18:35:00,37.9,35.0,29.91,North,7,0.0,7.0,88,0.02,,,0.77,23.4,Custom,2013-05-03 23:35:00,
2013-05-03 18:40:00,37.9,35.0,29.91,NNW,344,3.0,7.0,88,0.02,,,0.78,25.35,Custom,2013-05-03 23:40:00,
2013-05-03 18:45:00,37.9,35.0,29.91,North,5,0.0,2.0,88,0.03,,,0.78,17.16,Custom,2013-05-03 23:45:00,
2013-05-03 18:50:00,37.9,35.0,29.91,NNE,23,3.0,3.0,88,0.03,,,0.78,19.89,Custom,2013-05-03 23:50:00,
2013-05-03 18:55:00,37.8,35.0,29.91,North,2,0.0,4.0,88,0.03,,,0.78,17.16,Custom,2013-05-03 23:55:00,
2013-05-03 19:00:00,37.7,34.0,29.90,North,360,5.0,8.0,87,0.02,,,0.78,10.92,Custom,2013-05-04 00:00:00,
2013-05-03 19:05:00,37.5,34.0,29.90,NNW,345,2.0,5.0,88,0.02,,,0.78,7.8,Custom,2013-05-04 00:05:00,
2013-05-03 19:10:00,37.4,34.0,29.90,North,358,0.0,3.0,88,0.02,,,0.78,0,Custom,2013-05-04 00:10:00,
2013-05-03 19:15:00,37.3,34.0,29.90,North,360,0.0,4.0,89,0.02,,,0.79,0,Custom,2013-05-04 00:15:00,
2013-05-03 19:20:00,37.3,34.0,29.89,NNE,24,0.0,2.0,89,0.02,,,0.79,0,Custom,2013-05-04 00:20:00,
2013-05-03 19:25:00,37.3,35.0,29.89,WNW,292,0.0,3.0,89,0.02,,,0.79,0,Custom,2013-05-04 00:25:00,
2013-05-03 19:30:00,37.3,35.0,29.88,North,352,0.0,3.0,89,0.02,,,0.79,0,Custom,2013-05-04 00:30:00,
2013-05-03 19:35:00,37.3,35.0,29.88,North,4,2.0,2.0,89,0.02,,,0.79,0,Custom,2013-05-04 00:35:00,
2013-05-03 19:40:00,37.2,34.0,29.88,North,359,0.0,3.0,89,0.02,,,0.79,0,Custom,2013-05-04 00:40:00,
2013-05-03 19:45:00,37.2,34.0,29.89,North,0,3.0,3.0,89,0.01,,,0.79,0,Custom,2013-05-04 00:45:00,
2013-05-03 19:50:00,37.2,34.0,29.88,WSW,252,0.0,3.0,89,0.01,,,0.79,0,Custom,2013-05-04 00:50:00,
2013-05-03 19:55:00,37.2,35.0,29.89,North,358,0.0,4.0,90,0.01,,,0.79,0,Custom,2013-05-04 00:55:00,
2013-05-03 20:00:00,37.2,34.0,29.88,NW,308,0.0,4.0,89,0.01,,,0.79,0,Custom,2013-05-04 01:00:00,
2013-05-03 20:06:00,37.2,35.0,29.89,SW,225,0.0,4.0,90,0.01,,,0.79,0,Custom,2013-05-04 01:06:00,
2013-05-03 20:11:00,37.2,34.0,29.89,North,3,0.0,1.0,90,0.01,,,0.79,0,Custom,2013-05-04 01:11:00,
2013-05-03 20:16:00,37.2,35.0,29.88,North,0,0.0,2.0,90,0.00,,,0.79,0,Custom,2013-05-04 01:16:00,
2013-05-03 20:21:00,37.2,35.0,29.88,NNW,332,0.0,2.0,90,0.00,,,0.79,0,Custom,2013-05-04 01:21:00,
2013-05-03 20:26:00,37.1,35.0,29.88,NNW,330,0.0,2.0,90,0.00,,,0.79,0,Custom,2013-05-04 01:26:00,
2013-05-03 20:31:00,37.2,35.0,29.88,North,355,0.0,2.0,90,0.01,,,0.80,0,Custom,2013-05-04 01:31:00,
2013-05-03 20:36:00,37.0,34.0,29.88,North,0,0.0,2.0,90,0.01,,,0.80,0,Custom,2013-05-04 01:36:00,
2013-05-03 20:41:00,36.9,34.0,29.88,North,360,0.0,2.0,90,0.01,,,0.80,0,Custom,2013-05-04 01:41:00,
2013-05-03 20:46:00,36.8,34.0,29.88,NNE,29,0.0,4.0,90,0.01,,,0.80,0,Custom,2013-05-04 01:46:00,
2013-05-03 20:51:00,36.8,35.0,29.88,NNE,27,0.0,3.0,91,0.02,,,0.81,0,Custom,2013-05-04 01:51:00,
2013-05-03 20:56:00,36.8,35.0,29.88,SSW,198,0.0,0.0,91,0.02,,,0.81,0,Custom,2013-05-04 01:56:00,
2013-05-03 21:01:00,36.6,34.0,29.88,North,359,4.0,12.0,91,0.02,,,0.81,0,Custom,2013-05-04 02:01:00,
2013-05-03 21:06:00,36.5,34.0,29.88,WNW,290,2.0,4.0,91,0.03,,,0.82,0,Custom,2013-05-04 02:06:00,
2013-05-03 21:11:00,36.5,34.0,29.87,North,4,2.0,2.0,91,0.03,,,0.82,0,Custom,2013-05-04 02:11:00,
2013-05-03 21:16:00,36.5,34.0,29.87,NW,315,0.0,3.0,92,0.03,,,0.82,0,Custom,2013-05-04 02:16:00,
2013-05-03 21:21:00,36.5,34.0,29.87,North,0,0.0,5.0,92,0.03,,,0.82,0,Custom,2013-05-04 02:21:00,
2013-05-03 21:26:00,36.3,34.0,29.87,NW,321,0.0,4.0,91,0.04,,,0.83,0,Custom,2013-05-04 02:26:00,
2013-05-03 21:31:00,36.3,34.0,29.86,NNE,27,0.0,2.0,92,0.03,,,0.83,0,Custom,2013-05-04 02:31:00,
2013-05-03 21:36:00,36.2,34.0,29.86,North,8,0.0,3.0,92,0.04,,,0.84,0,Custom,2013-05-04 02:36:00,
2013-05-03 21:41:00,36.2,34.0,29.86,WNW,300,0.0,4.0,92,0.04,,,0.84,0,Custom,2013-05-04 02:41:00,
2013-05-03 21:46:00,36.3,34.0,29.86,WNW,300,0.0,0.0,91,0.05,,,0.85,0,Custom,2013-05-04 02:46:00,
2013-05-03 21:51:00,36.3,34.0,29.86,North,8,0.0,2.0,92,0.04,,,0.85,0,Custom,2013-05-04 02:51:00,
2013-05-03 21:56:00,36.3,34.0,29.86,North,2,0.0,2.0,91,0.04,,,0.85,0,Custom,2013-05-04 02:56:00,
2013-05-03 22:01:00,36.3,34.0,29.86,North,354,0.0,2.0,92,0.04,,,0.85,0,Custom,2013-05-04 03:01:00,
2013-05-03 22:06:00,36.3,34.0,29.85,NNE,31,0.0,2.0,92,0.04,,,0.86,0,Custom,2013-05-04 03:06:00,
2013-05-03 22:11:00,36.3,34.0,29.85,NW,310,0.0,2.0,92,0.05,,,0.87,0,Custom,2013-05-04 03:11:00,
2013-05-03 22:16:00,36.2,34.0,29.85,North,0,0.0,2.0,91,0.05,,,0.87,0,Custom,2013-05-04 03:16:00,
2013-05-03 22:21:00,36.2,34.0,29.85,North,360,0.0,1.0,92,0.05,,,0.88,0,Custom,2013-05-04 03:21:00,
2013-05-03 22:26:00,36.3,34.0,29.85,NW,306,0.0,2.0,92,0.05,,,0.88,0,Custom,2013-05-04 03:26:00,
2013-05-03 22:31:00,36.2,34.0,29.85,North,360,0.0,3.0,92,0.05,,,0.88,0,Custom,2013-05-04 03:31:00,
2013-05-03 22:36:00,36.2,34.0,29.85,North,360,0.0,2.0,92,0.04,,,0.88,0,Custom,2013-05-04 03:36:00,
2013-05-03 22:41:00,36.2,34.0,29.85,North,350,0.0,3.0,92,0.05,,,0.90,0,Custom,2013-05-04 03:41:00,
2013-05-03 22:46:00,36.2,34.0,29.84,North,0,3.0,4.0,92,0.04,,,0.90,0,Custom,2013-05-04 03:46:00,
2013-05-03 22:51:00,36.2,34.0,29.84,North,360,5.0,5.0,92,0.04,,,0.90,0,Custom,2013-05-04 03:51:00,
2013-05-03 22:56:00,36.2,34.0,29.84,NNW,348,0.0,4.0,92,0.04,,,0.90,0,Custom,2013-05-04 03:56:00,
2013-05-03 23:01:00,36.3,34.0,29.84,NNE,12,0.0,6.0,92,0.04,,,0.90,0,Custom,2013-05-04 04:01:00,
2013-05-03 23:02:00,36.2,34.0,29.83,North,0,0.0,6.0,91,0.04,,,0.90,0,Custom,2013-05-04 04:02:00,
2013-05-03 23:03:00,36.2,34.0,29.83,North,360,0.0,6.0,91,0.03,,,0.90,0,Custom,2013-05-04 04:03:00,
2013-05-03 23:05:00,36.2,34.0,29.83,NW,322,0.0,6.0,92,0.03,,,0.90,0,Custom,2013-05-04 04:05:00,
2013-05-03 23:10:00,36.1,34.0,29.83,North,0,0.0,5.0,92,0.03,,,0.91,0,Custom,2013-05-04 04:10:00,
2013-05-03 23:15:00,36.1,34.0,29.83,North,10,0.0,4.0,92,0.03,,,0.91,0,Custom,2013-05-04 04:15:00,
2013-05-03 23:20:00,35.9,34.0,29.83,North,10,0.0,5.0,92,0.03,,,0.91,0,Custom,2013-05-04 04:20:00,
2013-05-03 23:25:00,35.9,34.0,29.83,NNE,24,0.0,3.0,92,0.02,,,0.91,0,Custom,2013-05-04 04:25:00,
2013-05-03 23:30:00,35.9,34.0,29.83,North,360,0.0,1.0,92,0.02,,,0.91,0,Custom,2013-05-04 04:30:00,
2013-05-03 23:35:00,35.8,34.0,29.82,North,360,0.0,3.0,92,0.02,,,0.91,0,Custom,2013-05-04 04:35:00,
2013-05-03 23:40:00,35.8,34.0,29.81,North,1,0.0,1.0,92,0.01,,,0.91,0,Custom,2013-05-04 04:40:00,
2013-05-03 23:45:00,35.6,33.0,29.81,NNW,337,0.0,6.0,92,0.02,,,0.92,0,Custom,2013-05-04 04:45:00,
2013-05-03 23:50:00,35.6,34.0,29.81,North,360,0.0,1.0,92,0.02,,,0.92,0,Custom,2013-05-04 04:50:00,
2013-05-03 23:55:00,35.7,34.0,29.81,NNW,333,0.0,3.0,92,0.03,,,0.93,0,Custom,2013-05-04 04:55:00,